This is the latest recevied weather packets stored in our database for station/object F4IEI-10. If no packets are shown the sender has not sent any weather packets the latest 10 day(s).
| Time | Temp. | Humidity | Pressure | Rain* | Wind** | Luminosity | Snow |
|---|---|---|---|---|---|---|---|
| 1778101127 | 9.44° C | 100% | 1013.7 hPa | - | - | - | - |
| 1778100227 | 9.44° C | 100% | 1013.7 hPa | - | - | - | - |
| 1778099327 | 9.44° C | 100% | 1013.6 hPa | - | - | - | - |
| 1778098426 | 9.44° C | 100% | 1013.5 hPa | - | - | - | - |
| 1778097526 | 9.44° C | 100% | 1013.3 hPa | - | - | - | - |
| 1778096626 | 9.44° C | 100% | 1013.2 hPa | - | - | - | - |
| 1778095726 | 9.44° C | 100% | 1013 hPa | - | - | - | - |
| 1778094827 | 9.44° C | 100% | 1012.8 hPa | - | - | - | - |
| 1778093926 | 9.44° C | 100% | 1012.7 hPa | - | - | - | - |
| 1778093026 | 9.44° C | 100% | 1012.7 hPa | - | - | - | - |
| 1778092126 | 10° C | 100% | 1012.6 hPa | - | - | - | - |
| 1778091227 | 10° C | 100% | 1012.4 hPa | - | - | - | - |
| 1778090326 | 10° C | 100% | 1012.2 hPa | - | - | - | - |
| 1778089426 | 10° C | 100% | 1012.1 hPa | - | - | - | - |
| 1778088526 | 10.56° C | 97% | 1012 hPa | - | - | - | - |
| 1778087626 | 10.56° C | 98% | 1011.9 hPa | - | - | - | - |
| 1778086726 | 11.11° C | 98% | 1011.7 hPa | - | - | - | - |
| 1778085826 | 11.11° C | 96% | 1011.6 hPa | - | - | - | - |
| 1778084926 | 11.11° C | 96% | 1011.4 hPa | - | - | - | - |
| 1778084026 | 11.11° C | 93% | 1011.5 hPa | - | - | - | - |
| 1778083127 | 11.11° C | 92% | 1011.5 hPa | - | - | - | - |
| 1778082226 | 11.11° C | 95% | 1011.5 hPa | - | - | - | - |
| 1778081326 | 11.11° C | 93% | 1011.5 hPa | - | - | - | - |
| 1778080427 | 11.11° C | 94% | 1011.4 hPa | - | - | - | - |
| 1778079526 | 11.11° C | 91% | 1011.4 hPa | - | - | - | - |
* Rain since midnight (hover to see other rain measurements)
** Current wind speed in m/s (hover to see current wind gust speed)